This demonstration page uses our WeatherBlox Daily Observations layout. Learn more.

39.92423, -83.80882

Hourly Observations for April 5, 2020

Temp ( °F °C ) Dew Point ( °F °C ) Humidity (%) Winds ( mph kmh ) Pressure ( in mb ) Visibility ( mi km ) Precip ( " mm )
12:56 am 00:56 Cloudy 51 10.6 48 8.9 89 89 NNW 7 11 30.04 1017 10 16.0934 0 0
1:56 am 01:56 Cloudy 50 10 48 8.9 93 93 N 8 13 30.04 1017 10 16.0934 0 0
2:56 am 02:56 Cloudy 48 8.9 47 8.3 96 96 N 9 15 30.04 1017 10 16.0934 0 0
3:20 am 03:20 Cloudy 48 9 46 8 94 94 NNW 8 13 30.06 1018 10 16.0934 0 0
3:56 am 03:56 Cloudy 48 8.9 46 7.8 93 93 NNW 9 15 30.05 1018 10 16.0934 0 0
4:30 am 04:30 Cloudy 46 8 46 8 100 100 NNW 8 13 30.06 1018 10 16.0934 0 0
4:56 am 04:56 Cloudy 47 8.3 46 7.8 97 97 NNW 8 13 30.04 1017 10 16.0934 0 0
5:19 am 05:19 Cloudy with Light Rain 46 8 46 8 100 100 NNW 7 11 30.07 1018 10 16.0934 0.001 0.001
5:29 am 05:29 Cloudy with Light Rain 46 8 46 8 100 100 NNW 7 11 30.07 1018 10 16.0934 0.001 0.001
5:56 am 05:56 Cloudy with Rain 46 7.8 46 7.8 100 100 NE 8 13 30.04 1017 8 12.87472 0.02 0.508
6:05 am 06:05 Cloudy with Light Rain 46 8 46 8 100 100 N 5 7 30.06 1018 9 14.48406 0.001 0.001
6:56 am 06:56 Cloudy 46 7.8 46 7.8 100 100 NNE 6 9 30.05 1018 10 16.0934 0.001 0.001
7:56 am 07:56 Cloudy 46 7.8 46 7.8 100 100 NNW 7 11 30.09 1019 7 11.26538 0 0
8:56 am 08:56 Cloudy with Mist and Fog 47 8.3 47 8.3 100 100 N 8 13 30.09 1019 6 9.65604 0.001 0.001
9:56 am 09:56 Cloudy 48 8.9 48 8.9 100 100 N 6 9 30.11 1020 8 12.87472 0.01 0.254
10:56 am 10:56 Cloudy with Mist and Fog 49 9.4 49 9.4 100 100 NNE 6 9 30.12 1020 5 8.0467 0 0
11:56 am 11:56 Cloudy 50 10 49 9.4 96 96 N 7 11 30.13 1020 7 11.26538 0 0
12:56 pm 12:56 Cloudy 51 10.6 49 9.4 92 92 N 7 11 30.13 1020 7 11.26538 0 0
1:56 pm 13:56 Cloudy 50 10 49 9.4 96 96 NNE 8 13 30.13 1020 10 16.0934 0 0
2:49 pm 14:49 Cloudy 50 10 48 9 94 94 NNE 8 13 30.12 1020 10 16.0934 0 0
2:56 pm 14:56 Cloudy 50 10 48 8.9 93 93 NE 7 11 30.13 1020 10 16.0934 0 0
3:56 pm 15:56 Cloudy 50 10 47 8.3 89 89 NNE 9 15 30.13 1020 10 16.0934 0 0
4:56 pm 16:56 Cloudy 50 10 47 8.3 89 89 NNE 9 15 30.12 1020 10 16.0934 0 0
5:56 pm 17:56 Cloudy 49 9.4 46 7.8 90 90 NNE 9 15 30.14 1021 10 16.0934 0 0
6:56 pm 18:56 Cloudy 49 9.4 45 7.2 86 86 NNE 8 13 30.14 1021 10 16.0934 0 0
7:56 pm 19:56 Cloudy 48 8.9 45 7.2 89 89 NNE 7 11 30.14 1021 10 16.0934 0 0
8:56 pm 20:56 Cloudy 47 8.3 44 6.7 90 90 NE 7 11 30.15 1021 10 16.0934 0 0
9:20 pm 21:20 Cloudy 46 8 45 7 93 93 NNE 9 15 30.16 1021 10 16.0934 0 0
9:56 pm 21:56 Cloudy 47 8.3 44 6.7 90 90 NNE 6 9 30.16 1021 10 16.0934 0 0
10:56 pm 22:56 Cloudy 45 7.2 42 5.6 90 90 NNE 8 13 30.16 1021 10 16.0934 0 0
11:56 pm 23:56 Clear 39 3.9 38 3.3 96 96 NE 8 13 30.16 1021 9 14.48406 0 0

Powered by AerisWeather